Regional Weather Roundup
Issued by NWS

Home | Current Version | Previous Version | Graphics & Text | Print | Product List | Glossary On
Versions: 1 2 3 4 5 6 7 8 9 10 11 12 13 14 15 16 17 18 19 20 21 22 23 24 25 26 27 28 29 30 31 32 33 34 35 36 37 38 39 40 41 42 43 44 45 46 47 48 49 50
000
ASUS43 KMKX 262111
RWRWI

WISCONSIN REGIONAL WEATHER ROUNDUP
NATIONAL WEATHER SERVICE MILWAUKEE/SULLIVAN WI
300 PM CST WED NOV 26 2014

NOTE: "FAIR" INDICATES FEW OR NO CLOUDS BELOW 12,000 FEET WITH NO
SIGNIFICANT WEATHER AND/OR OBSTRUCTIONS TO VISIBILITY.

WIZ001-002-006>008-014>016-023>028-262200-
NORTHWEST WISCONSIN

CITY           SKY/WX    TMP DP  RH WIND       PRES   REMARKS
SUPERIOR ARPT  PTSUNNY   21  10  61 N9        30.26R WCI  11
ASHLAND        CLOUDY    23  17  78 NW8       30.22R WCI  14
HAYWARD        CLOUDY    23  18  81 N5        30.18R WCI  17
SIREN          CLOUDY    25  15  68 N7        30.22R WCI  17
CUMBERLAND     CLOUDY    23  16  74 N7        30.17R WCI  15
RICE LAKE      CLOUDY    25  17  72 NW7       30.19R WCI  17
CHETEK         CLOUDY    24  19  78 N7        30.18R WCI  16
LADYSMITH      LGT SNOW  25  20  83 NW7       30.17R WCI  17
EAU CLAIRE     LGT SNOW  25  20  81 NW3       30.18R
MENOMONIE      LGT SNOW  26  21  83 CALM      30.19R
NEW RICHMOND   CLOUDY    25  18  72 N8        30.20R WCI  17
OSCEOLA        CLOUDY    26  17  69 N8        30.25R WCI  17
$$

WIZ003>005-009-010-017-018-262200-
NORTH CENTRAL WISCONSIN

CITY           SKY/WX    TMP DP  RH WIND       PRES   REMARKS
MANITOWISH WTR LGT SNOW  21  19  89 NW3       30.11R
ARBOR VITAE    LGT SNOW  23  19  84 NW3       30.11R
WOODRUFF       LGT SNOW  23  19  84 NW3       30.11R
RHINELANDER    LGT SNOW  22  17  81 W7        30.11R WCI  13
EAGLE RIVER    LGT SNOW  22  17  79 NW6       30.10R WCI  15
LAND O LAKES   LGT SNOW  23  19  86 CALM      30.10S
PHILLIPS       LGT SNOW  22  19  88 NW7       30.12S WCI  14
TOMAHAWK       LGT SNOW  23  19  81 CALM      30.13R
MEDFORD        LGT SNOW  23  19  85 NW6       30.12R WCI  15
MERRILL        LGT SNOW  25  17  74 CALM      30.12S
$$

WIZ029-030-035-036-043>047-262200-
CENTRAL WISCONSIN

CITY           SKY/WX    TMP DP  RH WIND       PRES   REMARKS
WAUSAU         PTSUNNY   24  17  74 W6        30.12R WCI  17
MOSINEE        MOSUNNY   25  21  86 N5        30.13S WCI  19
MARSHFIELD     CLOUDY    26  16  65 E3        30.13R
STEVENS POINT  PTSUNNY   22  18  83 CALM      30.14S
WAUPACA        CLOUDY    24  19  81 CALM      30.16S
WAUTOMA        PTSUNNY   24  18  78 CALM      30.16R
WISC RAPIDS    MOSUNNY   26  16  65 CALM      30.16R
CAMP DOUGLAS   CLOUDY    27  22  82 N3        30.15R
$$

WIZ011>013-019>022-031-037>040-048>050-262200-
NORTHEAST WISCONSIN

CITY           SKY/WX    TMP DP  RH WIND       PRES   REMARKS
ANTIGO         LGT SNOW  21  18  89 CALM      30.11R
SHAWANO        MOSUNNY   23  17  78 CALM      30.16S
OCONTO         MOCLDY    23  18  83 CALM      30.17S
STURGEON BAY   MOCLDY    23  16  74 W7        30.16R WCI  15
GREEN BAY      PTSUNNY   24  18  77 NW6       30.17R WCI  17
MANITOWOC      CLOUDY    27  23  85 NW5       30.16R WCI  22
APPLETON       PTSUNNY   21  19  93 NW6       30.15R FOG     WCI  14
CLINTONVILLE   PTSUNNY   21  18  86 CALM      30.16S
OSHKOSH        PTSUNNY   22  17  81 MISG      30.15R HAZE
$$

WIZ032>034-041-042-053>061-262200-
SOUTHWEST WISCONSIN

CITY           SKY/WX    TMP DP  RH WIND       PRES   REMARKS
LA CROSSE      CLOUDY    29  18  63 N7        30.17R WCI  22
SPARTA         CLOUDY    28  18  68 N6        30.16R WCI  21
VIROQUA        PTSUNNY   26  20  76 NE7       30.12R WCI  18
BOSCOBEL       CLOUDY    25  20  81 VRB5      30.17R HAZE    WCI  19
PRAIRIE DU CHI CLOUDY    27  21  77 NE5       30.15R WCI  22
PLATTEVILLE    CLOUDY    27  24  89 CALM      30.12R
$$

WIZ056-057-062-063-064-067-068-262200-
SOUTH CENTRAL WISCONSIN

CITY           SKY/WX    TMP DP  RH WIND       PRES   REMARKS
REEDSBURG      PTSUNNY   23  18  81 NE5       30.15R WCI  16
BARABOO/DELLS  PTSUNNY   20  17  88 NE7       30.14S FOG     WCI  11
LONE ROCK      CLOUDY    25  17  72 NE7       30.16R WCI  17
MINERAL POINT  CLOUDY    27  23  86 NE7       30.11R WCI  19
MADISON        CLOUDY    20  16  84 N7        30.15R FOG     WCI  11
MIDDLETON      CLOUDY    24  19  83 N7        30.15R WCI  15
WATERTOWN      CLOUDY    19  18  99 SW6       30.14R FOG     WCI  10
MONROE         CLOUDY    27  23  86 NE6       30.10R WCI  20
JANESVILLE     NOT AVBL
$$

WIZ051-052-058>065-066-070>072-262200-
SOUTHEAST WISCONSIN

CITY           SKY/WX    TMP DP  RH WIND       PRES   REMARKS
MILWAUKEE      CLOUDY    30  21  69 CALM      30.12R
WAUKESHA       CLOUDY    25  19  80 CALM      30.13R
MILWAUKEE/TIMM CLOUDY    28  19  69 CALM      30.13R
RACINE         CLOUDY    29  23  78 N5        30.14R WCI  24
BURLINGTON     PTSUNNY   25  21  86 N5        30.12R WCI  19
KENOSHA        CLOUDY    28  23  81 N5        30.12R HAZE    WCI  23
FOND DU LAC    PTSUNNY   24  17  74 NW7       30.14R WCI  16
SHEBOYGAN      PTSUNNY   26  20  77 N6        30.14R WCI  19
WEST BEND      PTSUNNY   28  19  69 CALM      30.12R
JUNEAU         PTSUNNY   23  18  83 NW3       30.14R
$$

LSZ147-162-262200-
LAKE SUPERIOR

STATION/POSITION TIME  TEMP    WIND        PRES    WAVE
                       AIR SEA DIR/SP/G            HT/PER
                 (UTC) (F)     (DEG/KT/KT) (MB)    (FT/S)
DEVILS ISLAND    2100   23     350/ 15/ 17 1024.6R
PORT WING        2000   24     330/ 10/ 15 1023.4R
SAXON HARBOR     2000   26     330/ 13/ 16 1022.0R
$$

LMZ867-665-643>646-262200-
LAKE MICHIGAN

STATION/POSITION TIME  TEMP    WIND        PRES    WAVE
                       AIR SEA DIR/SP/G            HT/PER
                 (UTC) (F)     (DEG/KT/KT) (MB)    (FT/S)
CHAMBERS ISLAND  2000   24     250/  5/ 10 1021.3S
N MID LAKE BUOY  2050   28 42  300/  4/  6 1021.9R   1/ 4
NORTHPORT PIER   2100   26     290/  3/ 11 1021.3R
SISTER BAY       1913           CALM  /  3   N/A
KEWAUNEE LAKESHO 2000   26      CALM  /  2 1020.1R
SHEBOYGAN LAKESH 2100   26 37  330/  7/  8 1022.1R
PORT WASHINGTON  2040   31      20/  4/  6 1021.0S
MILWAUKEE LAKESH 2000   29      20/  4/  7   N/A
S MID LAKE BUOY  2050   31 42  130/  4/  8 1020.8R   1/ 4
KENOSHA   LAKESH 2100   29     330/  5/  8 1020.0S
$$

TC  - TEMPERATURE IN CELSIUS
VSB - VISIBILITY IN STATUTE MILES
WCI - WIND CHILL INDEX
HX  - HEAT INDEX



USA.gov is the U.S. government's official web portal to all federal, state and local government web resources and services.